Location: Windsor
(43.2292°N, 89.3015°W)
Time: 20:43:10
(UTC+00:00)

DIWATA 2B (PO-101) - Pass Details

Date: 05 July 2022
Orbit: 583 x 599 km, 98.0° (Epoch: 11 August)

Event Time Altitude Azimuth Distance (km) Brightness Sun altitude
Exits shadow 08:39:46 23° 238° (WSW) 1,276 ? -14.7°
Maximum altitude 08:40:55 27° 264° (W) 1,176 ? -14.6°
Drops below altitude 10° 08:44:31 10° 323° (NW) 1,947 ? -14.2°
Sets 08:46:59 0° 336° (NNW) 2,854 ? -13.9°
